DECAYED

STARLINK-2573, 48394 (Decayed)

Orbit data source: Space-Track

STARLINK-2573, 48394 was a payload satellite owned by SpaceX/Seattle (US) in LEO that was launched on Tue, 04 May 2021 UTC via an FALCON 9 launch vehicle from the Air Force Eastern Test Range (AFETR). Payload-class satellites include a variety of spacecraft equipped with specific instruments for various scientific and technological missions. These include communications satellites like Starlink; space stations such as the ISS; scientific satellites like the Hubble; Earth observation satellites from companies like Planet Labs, Umbra, and HawkEye 360; GPS; miniature CubeSats for education and research; and military/defense satellites.

Not visible in the next 10 days
Identifier
48394, 2021-038AT
Orbit
Decayed
Country
Flag of USUS
Related business
Manufacturer
SpaceX/Seattle
Mission
Decayed Commercial Communications
Bus & Motor
STARLINK, Unknown motor
Mass
260 kg wet, ~248 kg dry
Launch date (UTC)
2021-05-04 (5 years ago)
Launch vehicle
FALCON 9
Launch site
Air Force Eastern Test Range (AFETR)
Object type
Payload
Rocket body
Debris
Shape & HBR
Box + 1 Pan, 10.1 m
Radar Cross Section
13.562 m², Large (>1 m²)

Expand to show TLE details & history
Last TLE update: 1 year ago

TLE from 1 year ago
0 STARLINK-2573
1 48394U 21038AT  25007.71864903  .07007404  12187-4  13065-2 0  9996
2 48394  53.0353  74.6841 0005063 337.1083 119.7992 16.31384673203946
Epoch: 2025-01-07T17:14Z
TLE epoch observation values (Epoch: 2025-01-07T17:14:51.276Z)
Latitude
52.63595°
Longitude
169.93413°
Altitude
196.833 km
Speed
7.794 km/s
True Right ascension
11h 44m 40s
True Declination
52° 27' 21"
Sunlit
Object was in full shadow at epoch
Visualization orbit readout
Latitude
Unknown
Longitude
Unknown
Altitude
Unknown
Speed
Unknown
Apparent Right ascension
Unknown
Apparent Declination
Unknown
Sunlit
N/A
Visualization observer readout
Local Sidereal Time
21:26:51
Azimuth
Unknown
Elevation
Unknown
Doppler factor
Unknown
Orbital elements
Apogee altitude
192.435 km
Perigee altitude
185.785 km
Semi-major axis
6,567.247 km
Eccentricity
0.00051
Inclination
53.0353°
RAAN
74.6841°
Arg. of periapsis
337.1083°
True anomaly
119.84953°
Mean anomaly
119.7992°
Eccentric anomaly
119.82437°
Mean motion
4.0782 °/min
Orbital period
88.27 mins
BSTAR
0.0013065
Loading maneuver chart data...
Computing Atmospheric mass density...

Documentation

Showing up to 5 results
|